EW4115 Weather Reports


Display with metric or nautical units.
time (UTC)temp
F
wind
direction
speed
MPH
gust
MPH
rain 1hr
in
rain 24hr
in
rain mn
in
humidity
%
barometer
mb
20260504044523 50 269 0.0 0.0 0.00 0.06 0.00 79 1018.6
20260504043034 48 269 0.0 1.0 0.00 0.06 0.00 82 1018.5
20260504041514 47 269 0.0 0.0 0.00 0.06 0.00 83 1018.5
20260504040012 46 269 0.0 1.0 0.00 0.06 0.00 82 1018.4
20260504034507 46 269 0.0 0.0 0.00 0.06 0.00 81 1018.2
20260504033006 46 269 0.0 0.0 0.00 0.06 0.00 80 1018.2
20260504031506 46 269 0.0 0.0 0.00 0.06 0.00 80 1018.3
20260504030013 46 269 0.0 1.0 0.00 0.06 0.00 79 1018.2
20260504024506 46 269 0.0 1.0 0.00 0.07 0.00 79 1018.2
20260504023002 46 269 0.0 1.0 0.00 0.07 0.00 78 1018.2
20260504021501 47 269 0.0 1.0 0.00 0.07 0.00 77 1018.3
20260504020139 47 269 0.0 0.0 0.00 0.07 0.00 76 1018.3
20260504014607 47 269 0.0 1.0 0.00 0.07 0.00 76 1018.3
20260504013117 47 269 0.0 0.0 0.00 0.07 0.00 75 1018.3
20260504011555 47 269 0.0 1.0 0.00 0.07 0.00 74 1018.4
20260504010054 48 269 0.0 1.0 0.00 0.07 0.00 73 1018.2
20260504004621 48 269 0.0 1.0 0.00 0.07 0.00 72 1018.2
20260504003058 48 269 0.0 0.0 0.00 0.07 0.00 71 1018.2
20260504001618 49 269 0.0 1.0 0.00 0.07 0.00 69 1018.1
20260504000056 49 270 0.0 1.0 0.00 0.07 0.00 69 1018.1
20260503234547 49 270 0.0 1.0 0.00 0.07 0.00 69 1018.2
20260503233045 50 270 0.0 1.0 0.00 0.07 0.00 68 1018.2
20260503231543 50 270 0.0 1.0 0.00 0.07 0.00 67 1018.3
20260503230105 51 270 0.0 1.0 0.00 0.07 0.00 64 1018.2
20260503224539 51 270 0.0 3.0 0.00 0.09 0.00 63 1018.2
20260503223038 51 287 2.0 8.0 0.00 0.09 0.00 63 1018.2
20260503221537 51 271 0.0 7.0 0.00 0.09 0.00 63 1018.3
20260503220043 51 277 1.0 6.0 0.00 0.09 0.00 64 1018.4
20260503214534 51 260 0.0 2.0 0.00 0.09 0.00 64 1018.4
20260503213033 51 283 1.0 8.0 0.00 0.09 0.00 63 1018.4
20260503211532 51 254 1.0 4.0 0.00 0.09 0.00 63 1018.3
20260503210030 52 257 1.0 3.0 0.00 0.09 0.00 62 1018.4
20260503204529 52 256 0.0 3.0 0.00 0.09 0.09 61 1018.4
20260503203044 52 283 2.0 9.0 0.00 0.09 0.09 61 1018.5
20260503201532 52 252 1.0 9.0 0.00 0.09 0.09 60 1018.4
20260503200026 52 322 2.0 9.0 0.00 0.09 0.09 60 1018.5
20260503194536 53 256 1.0 7.0 0.00 0.09 0.09 60 1018.5
20260503193025 53 257 2.0 8.0 0.00 0.09 0.09 59 1018.4
20260503191524 53 274 0.0 7.0 0.00 0.09 0.09 60 1018.4
20260503190035 53 252 1.0 10.0 0.00 0.09 0.09 60 1018.3
20260503184524 53 247 1.0 4.0 0.00 0.09 0.09 59 1018.1
20260503183018 53 279 2.0 8.0 0.00 0.09 0.09 59 1017.9
20260503181517 54 269 2.0 10.0 0.00 0.09 0.09 57 1017.7
20260503180016 54 316 0.0 12.0 0.00 0.09 0.09 57 1017.4
20260503174513 54 264 1.0 9.0 0.00 0.09 0.09 57 1017.3
20260503173013 54 287 3.0 9.0 0.00 0.09 0.09 57 1017.1
20260503171511 54 315 4.0 10.0 0.00 0.09 0.09 56 1017.1
20260503081602 55 21 6.0 16.0 0.00 0.09 0.09 62 1016.2
20260503071504 51 350 1.0 4.0 0.00 0.09 0.09 81 1016.1